Weather in Solikamsk

Russia / Perm Krai     59°38′53″N   56°46′15″E
temp.,
°C
wind,
m/s
gust,
m/s
humid.,
%
clouds,
%
prec.,
mm/h
press.,
hPa
HPBL,
m
20 january, wed
wed2023:00−19ese127791 0.0 101720
02:00−15se2891100 0.0 1015236
05:00−13se3995100 0.1 1013395
08:00−13se4109499 0.1 1011447
11:00−13sse499399 0.4 1011477
14:00−12sse3793100 0.3 1010504
17:00−14sse249698 0.4 1009116
20:00−14s269699 0.2 1009249
21 january, thu
thu2123:00−17s259796 0.3 1009156
02:00−18s2597100 0.1 1009201
05:00−19ssw2598100 0.3 1009188
08:00−20ssw2599100 0.3 1009153
11:00−20ssw2498100 0.4 1010147
14:00−18ssw239595 0.1 1010283
17:00−19ssw129897 0.1 101121
20:00−20sw1299100 0.1 101121
22 january, fri
fri2223:00−20wsw1199100 0.3 101220
02:00−21sw0199100 0.1 101320
05:00−21sse009999 0.3 101420
08:00−21e1198100 0.1 101620
11:00−21e129895 0.1 101994
14:00−20e129568 0.0 1021219
17:00−24ne129651 0.0 102420
20:00−26e12927 0.0 102720
23 january, sat
sat2323:00−27se129025 0.0 102920
02:00−27s2297100 0.0 103148
05:00−27s2594100 0.0 1032177
08:00−28sse2593100 0.0 1033182
11:00−26sse3789100 0.0 1032260
14:00−23sse3888100 0.0 1030341
17:00−22sse4998100 0.5 1028359
20:00−20sse41097100 1.0 1027419
24 january, sun
sun2423:00−19sse41295100 1.7 1025523
02:00−18sse41195100 0.5 1024548
05:00−18sse51094100 0.9 1023508
08:00−17sse51094100 0.6 1022519
11:00−15sse51095100 1.4 1020491
14:00−13sse4994100 1.1 1018413
17:00−11sse3695100 1.8 1017313
20:00−12ese2296100 0.5 101865